This is the latest recevied weather packets stored in our database for station/object K9YK-13. If no packets are shown the sender has not sent any weather packets the latest 10 day(s).
| Time | Temp. | Humidity | Pressure | Rain* | Wind** | Luminosity | Snow |
|---|---|---|---|---|---|---|---|
| 1778084469 | 12.78° C | 66% | 0 hPa | 0 mm | - | - | - |
| 1778084169 | 13.89° C | 66% | 0 hPa | 0 mm | - | - | - |
| 1778083869 | 13.89° C | 68% | 0 hPa | 0 mm | - | - | - |
| 1778083569 | 13.89° C | 68% | 0 hPa | 0 mm | - | - | - |
| 1778083269 | 13.89° C | 68% | 0 hPa | 0 mm | - | - | - |
| 1778082969 | 13.89° C | 67% | 0 hPa | 0 mm | - | - | - |
| 1778082669 | 12.78° C | 68% | 0 hPa | 0 mm | - | - | - |
| 1778082369 | 13.89° C | 67% | 0 hPa | 0 mm | - | - | - |
| 1778082069 | 13.33° C | 68% | 0 hPa | 0 mm | - | - | - |
| 1778081769 | 13.89° C | 68% | 0 hPa | 0 mm | - | - | - |
| 1778081469 | 14.44° C | 67% | 0 hPa | 0 mm | - | - | - |
| 1778081169 | 14.44° C | 66% | 0 hPa | 0 mm | - | - | - |
| 1778080869 | 13.33° C | 65% | 0 hPa | 0 mm | - | - | - |
| 1778080569 | 14.44° C | 66% | 0 hPa | 0 mm | - | - | - |
| 1778080270 | 14.44° C | 68% | 0 hPa | 0 mm | - | - | - |
| 1778079969 | 13.33° C | 65% | 0 hPa | 0 mm | - | - | - |
| 1778079669 | 15° C | 61% | 0 hPa | 0 mm | - | - | - |
| 1778079369 | 15° C | 65% | 0 hPa | 0 mm | - | - | - |
| 1778079069 | 13.33° C | 66% | 0 hPa | 0 mm | - | - | - |
| 1778078769 | 13.33° C | 66% | 0 hPa | 0 mm | - | - | - |
| 1778078469 | 12.78° C | 66% | 0 hPa | 0 mm | - | - | - |
| 1778078169 | 13.33° C | 66% | 0 hPa | 0 mm | - | - | - |
| 1778077869 | 12.78° C | 69% | 0 hPa | 0 mm | - | - | - |
| 1778077569 | 13.33° C | 70% | 0 hPa | 0 mm | - | - | - |
| 1778077269 | 12.78° C | 70% | 0 hPa | 0 mm | - | - | - |
* Rain latest hour (hover to see other rain measurements)
** Current wind speed in m/s (hover to see current wind gust speed)